Wind_Speed
23 28 34 39 44 50 57 64 72 82 90 93 95 97 90 75 64 55 48 34 25 17 10 7 19 30 45 56 72 83 94 108 126 121 114 109 102 101 97 92 89 78 71 69 68 65 60
23 27 32 38 41 49 56 63 70 80 86 94 97 97 97 82 69 59 50 40 31 24 17 12 18 31 44 58 70 79 89 95 120 119 114 109 105 101 98 95 86 77 74 72 67 65 62
24 26 31 35 40 46 54 60 66 75 84 89 97 99 97 94 73 63 59 47 36 28 24 18 17 29 42 57 66 73 74 81 100 119 119 117 111 103 91 87 82 78 77 73 69 66 62
25 26 29 34 37 43 51 57 63 71 80 85 89 96 96 100 85 66 61 51 42 37 28 22 15 21 44 55 64 69 72 79 87 114 120 109 106 99 95 91 85 82 78 73 68 66 63
23 25 27 31 35 40 46 53 59 66 75 82 86 91 95 94 95 79 63 56 43 37 34 25 18 15 30 45 53 56 63 72 83 97 117 110 106 102 99 96 89 84 77 71 68 63 61
23 24 26 29 32 37 41 48 55 61 69 78 82 86 90 92 93 91 73 60 46 36 30 27 14 10 14 28 40 48 52 58 71 79 104 116 109 106 100 96 89 79 75 72 69 66 63
23 24 26 27 29 32 38 44 50 56 62 71 80 82 85 87 88 92 85 71 54 41 31 23 19 15 8 14 23 34 40 45 56 71 92 112 110 106 100 95 89 81 75 74 73 70 68
24 22 25 25 27 29 33 39 45 51 57 64 72 78 82 85 85 86 90 83 71 51 37 27 17 15 16 12 14 20 22 32 43 52 82 104 104 99 96 90 86 83 73 71 73 71 71
27 24 21 25 24 26 28 34 39 47 53 59 65 73 79 83 84 83 87 91 80 66 45 31 21 15 15 14 13 10 19 19 30 46 75 98 101 98 97 94 91 81 73 70 74 75 73
29 24 21 23 22 23 25 29 34 39 48 53 59 65 73 78 82 82 82 84 87 76 59 45 30 19 13 10 15 20 23 30 36 43 59 87 92 98 95 92 89 82 79 74 72 70 71
25 23 22 20 23 22 22 24 28 35 39 48 52 59 65 73 77 80 82 81 80 83 73 55 45 26 20 16 17 17 22 28 37 46 54 71 83 90 90 87 84 82 78 75 74 71 70
26 25 24 20 21 20 20 21 23 29 34 39 47 51 58 65 70 75 77 80 79 79 80 78 55 45 34 24 18 13 17 21 30 38 48 63 75 83 89 86 81 76 76 74 72 70 70
24 23 25 22 21 19 18 18 21 24 29 34 38 46 50 55 63 66 71 74 78 76 76 80 78 59 46 40 29 19 13 14 23 33 43 54 67 75 80 82 81 78 77 75 72 71 72
27 26 21 23 21 21 17 16 19 21 23 28 32 38 44 48 52 58 62 68 69 74 75 74 75 71 57 48 42 32 24 18 12 19 34 48 59 68 74 78 80 78 75 72 74 74 73
28 30 24 20 22 21 19 17 18 19 20 21 25 30 36 40 44 49 52 60 62 67 68 71 70 70 62 55 51 42 36 31 25 20 15 24 39 51 58 64 68 71 70 70 70 73 73
25 29 29 23 20 21 22 20 18 18 18 18 19 24 29 32 36 41 44 48 53 59 63 65 65 64 62 58 53 51 43 35 33 30 26 21 22 24 29 35 41 47 50 51 50 45 41
24 26 30 30 22 20 22 22 21 19 20 18 19 20 23 26 28 33 37 39 43 46 52 55 59 59 58 57 54 52 47 40 34 29 26 23 19 19 17 15 15 17 17 17 18 19 21
29 28 25 29 29 21 21 24 22 21 20 20 20 20 20 21 22 25 27 32 34 37 40 44 47 51 53 53 51 51 50 47 44 40 35 24 18 14 11 8 7 8 10 12 16 19 22
30 30 30 25 26 26 23 21 22 22 21 21 22 20 20 20 21 21 21 22 27 31 32 33 37 40 41 44 45 45 45 46 48 47 42 37 33 30 28 23 20 18 15 14 15 15 17
30 30 30 32 29 25 26 25 23 23 23 23 23 22 20 22 20 20 18 19 20 21 24 26 28 29 32 32 35 34 34 34 35 36 36 37 37 36 34 33 34 32 28 24 25 22 20
33 33 33 34 31 28 24 24 26 25 27 26 25 25 21 22 25 23 19 17 17 16 19 18 21 23 24 23 25 26 24 24 24 25 25 26 27 24 26 23 22 22 23 21 22 23 23
43 41 37 35 35 33 31 28 24 23 23 25 27 29 29 28 29 30 24 21 20 19 13 16 14 19 21 16 16 22 20 21 16 17 18 20 20 21 23 20 15 15 14 15 15 17 17
43 43 40 39 37 38 38 36 30 28 26 23 23 27 32 32 32 27 25 26 21 19 20 17 17 15 16 18 18 19 18 21 23 17 19 20 20 18 20 20 19 19 21 22 25 24 24
48 45 45 45 43 43 40 38 39 35 32 32 30 27 27 29 26 28 28 24 25 24 22 21 21 22 20 19 19 21 24 23 21 21 15 17 19 21 26 25 26 28 24 26 30 35 36
51 51 51 51 52 48 45 43 42 40 37 36 35 32 30 28 26 23 24 26 26 26 26 27 26 26 27 25 26 24 23 26 27 27 27 22 21 25 26 28 30 32 36 35 37 38 36
56 56 56 57 57 57 54 51 49 48 45 42 41 39 36 35 33 32 31 28 28 28 27 27 29 31 33 32 31 32 31 31 32 33 33 33 29 30 33 34 36 39 41 44 44 46 49
64 63 63 63 63 64 63 60 58 55 52 54 51 49 47 44 42 40 40 39 38 39 40 41 40 38 34 35 35 40 40 39 38 38 40 41 40 38 42 42 46 47 51 49 49 51 54
73 72 72 71 72 71 71 70 67 66 64 63 61 59 55 54 51 49 46 48 48 47 44 46 46 49 51 50 49 51 48 48 49 45 49 48 49 49 52 49 54 56 57 58 57 58 60
84 80 79 77 78 73 76 77 78 78 75 70 70 69 68 66 65 61 59 58 57 58 59 56 52 51 51 54 55 54 54 54 56 54 58 53 57 55 55 59 64 61 64 66 58 66 71
Wind_Direction
316 326 331 335 339 345 351 358 4 8 13 15 15 16 18 14 13 16 16 26 28 44 71 147 172 180 184 184 193 196 203 205 208 211 213 216 218 217 218 221 224 225 224 224 226 231 234
317 326 332 335 342 347 353 358 7 9 14 18 19 18 21 18 15 22 22 26 41 49 63 106 155 169 179 185 193 198 203 202 205 209 211 213 217 215 216 219 222 221 221 225 228 232 233
315 324 332 336 341 349 353 359 8 11 13 18 21 19 22 23 19 23 24 28 46 53 60 90 131 164 182 187 192 198 200 201 203 208 208 210 213 215 214 216 218 220 222 225 228 230 230
311 319 329 335 343 350 354 360 7 12 13 17 21 23 22 25 24 26 28 30 35 56 60 76 111 167 181 188 193 199 199 199 200 205 207 212 211 214 210 211 215 219 221 223 226 228 232
307 315 325 335 344 350 357 359 5 13 14 16 22 24 25 26 27 29 29 30 33 43 54 61 84 126 192 196 197 201 201 200 202 202 203 206 209 210 210 212 213 217 219 223 224 228 230
301 310 320 332 344 348 358 359 4 11 13 16 20 27 28 26 28 30 33 31 33 41 53 67 70 107 166 198 202 201 204 204 203 201 202 203 206 209 211 211 213 215 218 221 225 228 232
302 302 314 328 340 347 355 359 6 9 12 14 18 26 30 31 29 30 33 35 37 43 42 64 93 110 148 182 207 210 205 203 202 204 201 203 204 209 208 210 214 214 216 220 223 228 233
294 295 309 323 336 347 352 359 3 9 14 11 14 24 30 33 31 31 33 35 36 39 44 44 60 101 128 130 179 206 212 215 203 201 200 202 204 207 209 211 215 217 218 222 225 230 234
289 292 300 312 328 343 352 356 4 10 13 12 12 19 29 34 35 33 33 35 36 37 42 55 60 65 99 132 142 159 178 180 193 200 200 201 205 208 210 211 214 218 221 224 226 230 236
282 282 287 303 320 335 347 356 3 7 13 12 12 15 24 32 36 37 36 36 37 39 38 43 55 74 90 112 138 145 163 170 180 192 198 202 206 210 212 214 216 219 222 226 230 235 239
291 271 278 292 308 325 341 353 359 7 9 14 14 12 18 29 35 38 38 38 37 39 40 44 50 62 75 91 127 140 156 174 184 190 195 200 205 210 212 215 218 221 225 229 234 239 244
302 276 272 280 296 314 335 349 356 360 7 9 15 13 13 22 31 38 40 41 39 38 38 42 50 54 56 60 77 122 141 171 182 189 195 200 204 209 213 215 218 222 227 232 236 241 247
339 307 277 275 285 301 323 347 350 0 5 8 8 15 11 15 22 33 39 43 43 42 41 41 43 49 57 59 63 73 110 153 181 185 191 195 203 207 211 218 223 226 230 234 239 245 250
355 346 302 281 279 290 308 327 345 347 2 8 7 7 16 12 16 25 34 43 45 46 46 44 43 44 54 60 61 66 82 100 139 186 197 196 200 209 214 218 222 227 233 239 243 249 255
342 350 344 301 283 280 291 309 328 340 345 6 5 5 4 15 11 17 27 38 45 46 48 50 49 46 49 60 65 68 75 80 93 120 161 207 214 216 220 225 230 234 239 245 252 258 262
334 336 343 338 300 279 284 295 313 324 335 341 2 2 1 4 14 10 20 31 39 49 51 52 54 54 52 53 53 56 66 80 88 94 106 131 157 184 204 217 225 231 236 240 246 251 256
313 325 331 341 333 295 279 285 296 311 321 331 340 353 358 360 8 10 8 23 31 40 49 53 54 55 56 59 56 56 56 62 70 80 92 102 120 139 151 167 182 197 209 218 225 235 240
304 307 321 331 339 326 294 283 288 294 308 318 326 332 343 353 356 3 12 7 19 32 39 47 54 57 57 58 61 63 63 62 63 64 66 69 77 95 121 143 176 196 218 231 240 247 253
299 306 306 313 324 335 334 298 283 294 294 302 313 322 325 328 338 345 356 9 2 13 28 36 45 51 61 62 62 63 70 71 71 69 68 67 68 65 60 58 56 51 45 26 1 338 332
296 304 306 304 306 315 326 328 297 284 292 293 299 309 314 320 322 326 338 347 355 353 11 20 29 41 47 52 62 66 64 64 64 62 60 61 61 62 63 62 61 56 52 44 40 36 27
288 294 302 303 302 302 309 316 322 308 290 293 295 299 301 310 314 314 311 326 333 341 340 0 8 15 26 34 39 41 57 58 54 50 51 46 44 49 45 49 53 51 47 48 35 35 27
282 288 292 294 297 299 301 304 309 317 311 301 292 296 296 301 307 308 303 287 310 322 330 325 339 345 357 12 1 12 13 16 24 24 24 11 8 8 14 21 27 21 28 24 21 10 7
277 276 285 286 287 291 293 297 298 297 303 304 308 304 300 300 305 305 293 292 278 290 308 310 312 322 320 331 338 345 355 338 336 343 342 341 339 342 338 344 348 345 342 343 346 346 341
273 277 281 280 279 281 285 289 291 293 292 295 295 301 307 306 305 303 297 283 272 269 277 290 289 297 300 309 311 312 323 335 331 312 322 311 322 328 314 317 319 327 327 326 324 329 328
272 271 275 276 278 274 273 277 283 287 291 288 291 292 292 293 292 295 298 295 278 280 273 274 281 277 284 289 303 304 300 305 312 313 315 304 301 315 312 303 303 308 316 320 319 317 314
268 271 273 275 277 275 274 273 272 277 279 282 283 283 286 285 284 284 281 283 285 285 288 284 277 276 277 275 281 291 298 300 303 298 297 304 293 293 304 295 305 289 302 307 311 311 310
263 266 270 272 273 272 271 273 274 274 275 278 278 280 279 278 278 276 275 277 279 280 282 284 284 281 275 279 283 285 291 291 293 292 293 297 296 289 297 290 303 299 301 300 297 303 301
262 263 267 270 272 271 271 270 271 271 275 277 277 275 276 278 277 272 270 272 273 273 276 281 284 285 283 281 282 284 286 285 289 286 289 291 290 293 292 289 292 294 297 298 297 295 299
257 259 262 267 269 271 268 269 271 271 270 270 270 272 275 275 276 274 272 271 272 274 273 270 270 273 278 282 282 282 283 284 286 285 286 289 290 285 282 285 288 290 289 293 291 295 297
Height
10735 10730 10723 10715 10706 10694 10683 10668 10648 10626 10599 10569 10543 10515 10488 10465 10446 10429 10415 10404 10394 10386 10382 10384 10389 10399 10409 10423 10434 10451 10464 10488 10515 10541 10569 10593 10612 10632 10646 10662 10674 10697 10712 10718 10722 10734 10744
10732 10726 10720 10713 10704 10692 10681 10668 10649 10628 10605 10578 10551 10526 10499 10475 10456 10437 10423 10411 10400 10391 10390 10389 10393 10401 10412 10422 10432 10446 10458 10486 10508 10534 10561 10582 10602 10625 10635 10651 10672 10690 10701 10708 10719 10728 10738
10728 10724 10717 10711 10702 10692 10680 10668 10652 10633 10611 10587 10561 10536 10511 10488 10467 10447 10432 10420 10410 10401 10400 10401 10403 10411 10415 10425 10433 10447 10467 10485 10506 10526 10548 10565 10585 10613 10646 10658 10670 10680 10690 10701 10712 10723 10731
10724 10720 10715 10709 10702 10692 10681 10669 10655 10639 10619 10598 10575 10550 10524 10500 10480 10461 10446 10431 10423 10413 10411 10414 10417 10423 10424 10430 10436 10448 10465 10481 10502 10519 10547 10576 10598 10620 10632 10648 10658 10670 10682 10694 10706 10717 10725
10722 10718 10713 10708 10700 10692 10681 10671 10658 10644 10628 10609 10586 10561 10539 10518 10498 10474 10460 10446 10436 10430 10423 10423 10430 10431 10435 10438 10446 10458 10469 10484 10495 10516 10544 10567 10593 10608 10622 10637 10650 10661 10677 10691 10702 10711 10718
10720 10715 10711 10706 10700 10692 10683 10673 10661 10648 10634 10619 10600 10579 10556 10534 10514 10494 10477 10464 10451 10445 10441 10436 10439 10442 10448 10450 10458 10467 10476 10487 10502 10525 10540 10557 10578 10594 10614 10631 10647 10660 10674 10687 10696 10704 10710
10718 10714 10710 10705 10700 10693 10684 10675 10665 10653 10640 10627 10611 10592 10572 10551 10533 10513 10495 10481 10469 10458 10454 10450 10448 10449 10455 10461 10468 10474 10483 10494 10507 10523 10536 10555 10573 10589 10605 10625 10642 10658 10668 10677 10687 10696 10704
10715 10712 10708 10704 10699 10694 10687 10678 10669 10659 10647 10634 10620 10605 10586 10566 10549 10532 10513 10495 10482 10475 10465 10461 10459 10457 10459 10466 10474 10482 10489 10500 10512 10523 10540 10559 10579 10594 10610 10629 10644 10653 10665 10677 10683 10691 10698
10711 10710 10707 10703 10700 10694 10689 10681 10672 10663 10653 10641 10629 10616 10599 10582 10564 10547 10528 10512 10498 10487 10483 10477 10473 10471 10469 10471 10475 10483 10492 10502 10517 10531 10543 10561 10577 10590 10605 10620 10634 10649 10664 10670 10676 10684 10692
10705 10705 10704 10701 10699 10695 10689 10683 10676 10667 10659 10648 10637 10626 10612 10596 10580 10562 10548 10532 10520 10503 10498 10491 10484 10482 10482 10481 10484 10490 10496 10504 10516 10527 10543 10559 10576 10592 10606 10620 10631 10646 10655 10665 10672 10680 10687
10700 10700 10700 10699 10697 10694 10690 10684 10678 10670 10664 10655 10645 10634 10623 10608 10595 10580 10565 10550 10538 10526 10518 10505 10498 10495 10493 10492 10494 10498 10504 10511 10520 10530 10544 10559 10578 10594 10605 10619 10632 10642 10652 10661 10669 10676 10682
10696 10695 10696 10695 10694 10692 10690 10685 10680 10673 10667 10660 10653 10643 10632 10622 10609 10596 10583 10567 10554 10543 10536 10523 10513 10508 10507 10505 10504 10508 10512 10519 10526 10535 10547 10560 10575 10590 10604 10617 10629 10641 10649 10657 10665 10671 10676
10694 10692 10692 10692 10691 10690 10689 10686 10681 10676 10670 10664 10658 10651 10641 10632 10623 10612 10600 10586 10575 10565 10553 10540 10530 10524 10521 10519 10519 10520 10524 10529 10535 10543 10552 10565 10580 10593 10607 10619 10629 10638 10646 10654 10660 10666 10670
10695 10690 10688 10689 10690 10688 10687 10685 10683 10678 10673 10668 10663 10657 10650 10641 10634 10626 10616 10603 10596 10584 10572 10560 10551 10543 10537 10534 10533 10534 10537 10541 10547 10555 10563 10571 10583 10595 10606 10616 10625 10635 10644 10653 10657 10659 10662
10694 10691 10686 10685 10686 10687 10685 10683 10683 10680 10676 10671 10666 10662 10656 10650 10644 10637 10630 10619 10611 10601 10591 10582 10572 10567 10560 10555 10553 10552 10552 10554 10558 10564 10573 10583 10593 10603 10612 10622 10631 10638 10644 10650 10654 10655 10654
10693 10691 10687 10683 10682 10683 10684 10682 10681 10680 10677 10673 10669 10665 10661 10656 10651 10646 10641 10633 10627 10617 10609 10601 10594 10587 10581 10578 10575 10572 10572 10574 10575 10578 10583 10590 10597 10605 10613 10621 10628 10633 10638 10641 10644 10646 10647
10691 10689 10687 10683 10679 10679 10680 10680 10680 10678 10677 10675 10672 10668 10664 10660 10656 10652 10647 10644 10638 10632 10624 10617 10611 10606 10601 10596 10593 10591 10591 10591 10592 10594 10598 10602 10608 10612 10618 10623 10628 10631 10634 10637 10638 10638 10639
10688 10686 10685 10682 10680 10676 10675 10677 10677 10677 10675 10674 10673 10670 10667 10664 10660 10656 10653 10648 10645 10642 10637 10632 10625 10620 10617 10613 10609 10607 10605 10605 10606 10608 10610 10613 10616 10619 10623 10626 10628 10631 10633 10634 10635 10636 10636
10683 10682 10681 10680 10678 10676 10673 10672 10672 10673 10672 10672 10671 10670 10667 10665 10663 10659 10656 10653 10650 10646 10643 10640 10637 10634 10630 10626 10624 10623 10620 10619 10618 10618 10619 10621 10623 10624 10626 10628 10630 10631 10633 10635 10636 10636 10635
10677 10677 10676 10675 10674 10673 10671 10670 10668 10668 10668 10668 10667 10667 10666 10664 10663 10661 10658 10654 10652 10650 10648 10644 10643 10641 10639 10637 10634 10633 10631 10630 10629 10629 10629 10629 10628 10629 10630 10631 10631 10632 10633 10633 10633 10633 10633
10670 10670 10670 10670 10669 10668 10668 10666 10665 10664 10664 10664 10663 10663 10662 10661 10660 10659 10658 10655 10652 10650 10650 10648 10645 10642 10641 10641 10640 10639 10638 10636 10635 10635 10634 10634 10634 10634 10634 10634 10633 10632 10631 10631 10631 10629 10628
10661 10662 10663 10662 10663 10662 10662 10661 10660 10660 10659 10659 10659 10658 10658 10657 10657 10655 10654 10653 10652 10650 10648 10647 10646 10644 10642 10640 10639 10639 10639 10638 10638 10637 10636 10636 10636 10635 10634 10633 10632 10631 10630 10630 10629 10629 10628
10651 10653 10655 10655 10655 10656 10655 10655 10655 10654 10654 10654 10654 10653 10652 10651 10651 10651 10649 10648 10648 10646 10645 10644 10643 10642 10642 10640 10639 10637 10636 10635 10635 10634 10633 10633 10632 10633 10632 10631 10630 10627 10626 10624 10623 10622 10620
10640 10642 10644 10646 10647 10647 10648 10647 10648 10647 10647 10647 10648 10648 10647 10645 10645 10645 10644 10643 10642 10642 10641 10640 10638 10638 10637 10636 10635 10634 10632 10631 10631 10629 10630 10629 10628 10626 10625 10625 10623 10622 10621 10619 10616 10614 10612
10626 10629 10631 10634 10636 10637 10637 10638 10639 10640 10640 10640 10639 10640 10640 10640 10640 10639 10639 10638 10636 10636 10635 10634 10633 10633 10631 10630 10629 10628 10628 10626 10624 10624 10623 10622 10620 10619 10619 10616 10617 10613 10611 10610 10609 10606 10603
10613 10616 10617 10619 10622 10624 10625 10627 10628 10629 10630 10630 10630 10631 10630 10630 10631 10632 10632 10632 10631 10630 10629 10628 10626 10626 10625 10624 10622 10620 10620 10618 10618 10615 10614 10613 10613 10611 10609 10607 10606 10603 10601 10599 10596 10593 10589
10598 10600 10602 10603 10605 10607 10610 10612 10614 10616 10617 10618 10619 10619 10620 10620 10619 10620 10621 10620 10621 10621 10620 10619 10619 10617 10617 10616 10615 10614 10612 10610 10609 10606 10602 10601 10600 10599 10597 10595 10593 10589 10587 10585 10582 10580 10576
10581 10583 10585 10586 10587 10589 10592 10594 10596 10598 10601 10603 10605 10606 10606 10608 10608 10608 10607 10608 10607 10607 10607 10605 10606 10605 10603 10603 10603 10601 10601 10598 10597 10597 10592 10589 10586 10585 10582 10580 10579 10574 10572 10569 10567 10564 10561
10560 10564 10566 10568 10570 10571 10573 10575 10576 10579 10581 10584 10584 10589 10590 10591 10591 10593 10592 10593 10591 10592 10592 10590 10590 10587 10587 10586 10586 10586 10585 10583 10581 10581 10575 10576 10572 10572 10566 10563 10559 10560 10555 10553 10550 10546 10541